Location: Bannatyne
(13.0833°N, 59.5333°W)
Time: 22:33:12
(UTC+00:00)

N. Korean satellite - Visible Passes

Search period start: 27 January 2021 00:00
Search period end: 06 February 2021 00:00
Orbit: 452 x 502 km, 97.2° (Epoch: 27 January)

Date Brightness Start Highest point End Pass type
(mag) Time Alt. Az. Time Alt. Az. Time Alt. Az.
27 Jan 8.4 08:43:49 10° NE 08:46:48 29° E 08:49:48 10° SSE visible
28 Jan 9.9 08:19:19 10° E 08:20:13 11° E 08:21:07 10° ESE visible
28 Jan 7.9 09:51:03 10° NW 09:53:19 17° WNW 09:55:35 10° WSW visible
29 Jan 6.6 09:23:33 10° N 09:26:49 47° WNW 09:30:05 10° SSW visible
30 Jan 7.2 08:56:58 10° NNE 09:00:16 52° E 09:03:35 10° S visible
31 Jan 9.3 08:31:16 10° NE 08:33:40 18° E 08:36:04 10° SE visible
01 Feb 7.3 09:37:17 10° NNW 09:40:12 27° WNW 09:43:09 10° SW visible
02 Feb 6.3 09:10:16 10° N 09:13:39 85° W 09:17:04 10° SSW visible
03 Feb 8.4 08:44:03 10° NE 08:47:04 30° E 08:50:06 10° SSE visible
04 Feb 10.0 08:19:21 10° E 08:20:26 11° E 08:21:32 10° ESE visible
04 Feb 8.0 09:51:17 10° NW 09:53:32 17° WNW 09:55:48 10° WSW visible
05 Feb 6.6 09:23:43 10° N 09:26:59 46° WNW 09:30:18 10° SSW visible
